K3RTA-2 Weather Reports


Display with metric or nautical units.
time (UTC)temp
F
wind
direction
speed
MPH
gust
MPH
rain 1hr
in
rain 24hr
in
rain mn
in
humidity
%
barometer
mb
20260903012503 75 103 0.0 2.0 0.00 1.55 0.01 96 1017.8
20260903012004 75 112 0.0 2.0 0.00 1.55 0.01 96 1017.8
20260903011505 75 76 0.0 1.0 0.00 1.55 0.01 96 1017.8
20260903011005 75 63 0.0 1.0 0.00 1.55 0.01 96 1017.9
20260903010504 75 63 0.0 1.0 0.00 1.55 0.01 96 1017.9
20260903010004 75 63 0.0 1.0 0.00 1.55 0.01 96 1017.9
20260903005504 75 59 0.0 1.0 0.00 1.55 0.01 96 1017.8
20260903004504 75 106 0.0 1.0 0.00 1.55 0.01 96 1017.7
20260903003004 75 133 0.0 2.0 0.00 1.55 0.01 96 1017.5
20260903001504 75 99 0.0 1.0 0.00 1.55 0.01 96 1017.5
20260903001004 75 98 0.0 1.0 0.00 1.55 0.01 96 1017.4
20260903000504 75 100 0.0 1.0 0.00 1.55 0.01 96 1017.6
20260903000004 75 44 0.0 1.0 0.00 1.55 0.01 96 1017.6
20260902235005 75 66 0.0 2.0 0.00 1.55 0.01 96 1017.5
20260902234004 75 53 0.0 3.0 0.00 1.55 0.01 96 1017.3
20260902233504 76 60 0.0 2.0 0.00 1.55 0.01 96 1017.5
20260902233004 76 60 0.0 2.0 0.00 1.55 0.01 96 1017.6
20260902232504 76 81 0.0 2.0 0.00 1.55 0.01 96 1017.5
20260902232004 76 80 0.0 1.0 0.00 1.55 0.01 96 1017.6
20260902231504 76 82 0.0 1.0 0.00 1.55 0.01 96 1017.5
20260902230504 76 81 0.0 1.0 0.00 1.55 0.01 96 1017.4
20260902230003 76 81 0.0 1.0 0.00 1.55 0.01 96 1017.5
20260902225504 76 81 0.0 1.0 0.00 1.55 0.01 95 1017.5
20260902225005 76 81 0.0 1.0 0.00 1.55 0.01 95 1017.6
20260902224004 76 126 1.0 2.0 0.00 1.55 0.01 95 1017.5
20260902223503 76 57 0.0 1.0 0.00 1.55 0.01 95 1017.4
20260902223005 76 57 0.0 1.0 0.00 1.55 0.01 95 1017.5
20260902222504 76 57 0.0 1.0 0.00 1.55 0.01 95 1017.6
20260902222005 76 57 0.0 1.0 0.00 1.55 0.01 95 1017.8
20260902221504 76 57 0.0 2.0 0.00 1.55 0.01 95 1017.9
20260902220504 76 31 1.0 5.0 0.00 1.55 0.01 95 1018.1
20260902220004 76 27 1.0 3.0 0.00 1.55 0.01 95 1018.3
20260902215504 76 47 0.0 3.0 0.00 1.55 0.01 95 1018.2
20260902215003 76 17 0.0 3.0 0.00 1.55 0.01 95 1018.2
20260902214505 76 70 0.0 3.0 0.00 1.55 0.01 95 1018.0
20260902214004 76 16 0.0 3.0 0.00 1.55 0.01 95 1017.9
20260902213504 76 72 1.0 2.0 0.00 1.55 0.01 95 1017.7
20260902213004 76 62 1.0 2.0 0.00 1.55 0.01 95 1017.9
20260902212505 76 27 0.0 0.0 0.00 1.55 0.01 95 1018.0
20260902211504 76 27 0.0 1.0 0.00 1.55 0.01 95 1018.1
20260902211005 76 27 0.0 1.0 0.00 1.55 0.01 96 1017.9
20260902205503 76 100 0.0 1.0 0.01 1.55 0.01 96 1017.3
20260902205004 75 257 0.0 2.0 0.01 1.55 0.01 96 1017.6
20260902204504 75 255 1.0 3.0 0.01 1.55 0.01 96 1017.3
20260902204003 75 169 2.0 3.0 0.01 1.55 0.01 95 1016.8
20260902203504 75 172 1.0 3.0 0.01 1.55 0.01 95 1016.7
20260902203004 75 76 1.0 7.0 0.01 1.55 0.01 95 1016.8
20260902202504 75 127 2.0 7.0 0.01 1.55 0.01 95 1016.3
20260902202004 75 132 2.0 7.0 0.01 1.55 0.01 95 1016.0
20260902201504 75 123 1.0 12.0 0.01 1.55 0.01 95 1016.0
20260902201003 75 160 3.0 12.0 0.01 1.55 0.01 95 1015.9
20260902200504 75 137 4.0 12.0 0.01 1.55 0.01 95 1016.1
20260902200004 75 126 6.0 12.0 0.00 1.54 0.00 94 1016.2
20260902195504 76 125 3.0 7.0 0.00 1.54 0.00 94 1016.6
20260902195004 76 125 1.0 7.0 0.00 1.54 0.00 94 1017.5
20260902194503 76 112 2.0 7.0 0.00 1.54 0.00 93 1017.8
20260902194005 77 132 3.0 7.0 0.00 1.54 0.00 92 1017.9
20260902193504 77 138 1.0 5.0 0.00 1.54 0.00 92 1018.5
20260902193004 77 127 2.0 5.0 0.00 1.54 0.00 91 1018.9
20260902192503 77 70 0.0 2.0 0.00 1.54 0.00 91 1019.7
20260902192004 78 24 0.0 2.0 0.00 1.54 0.00 90 1019.9
20260902191504 78 24 0.0 2.0 0.00 1.54 0.00 90 1019.9
20260902191004 78 141 0.0 2.0 0.00 1.54 0.00 89 1019.9
20260902190504 79 115 0.0 5.0 0.00 1.54 0.00 89 1019.5
20260902190004 79 102 0.0 5.0 0.00 1.54 0.00 89 1019.0
20260902185504 79 127 0.0 5.0 0.00 1.54 0.00 89 1019.2
20260902185004 79 9 0.0 8.0 0.00 1.54 0.00 89 1019.4
20260902184503 80 60 2.0 8.0 0.00 1.54 0.00 88 1019.3
20260902184004 80 128 2.0 8.0 0.00 1.54 0.00 88 1019.0
20260902183504 80 66 1.0 6.0 0.00 1.54 0.00 88 1018.9
20260902182504 80 109 1.0 3.0 0.00 1.54 0.00 88 1019.1
20260902182004 80 73 1.0 3.0 0.00 1.54 0.00 88 1019.2
20260902181504 80 58 2.0 3.0 0.00 1.54 0.00 89 1019.3
20260902181004 80 80 0.0 5.0 0.00 1.54 0.00 90 1019.3
20260902180504 79 68 2.0 5.0 0.00 1.54 0.00 89 1019.3
20260902180006 79 51 1.0 8.0 0.00 1.54 0.00 90 1019.4
20260902174504 79 106 1.0 7.0 0.00 1.54 0.00 90 1019.4
20260902174004 79 64 1.0 7.0 0.00 1.54 0.00 90 1019.3
20260902172004 80 75 1.0 7.0 0.00 1.54 0.00 88 1019.1
20260902171004 80 84 1.0 8.0 0.00 1.54 0.00 88 1019.1
20260902170503 81 105 2.0 5.0 0.00 1.54 0.00 87 1019.0
20260902170004 81 146 2.0 5.0 0.00 1.54 0.00 87 1019.0
20260902165504 81 41 2.0 6.0 0.00 1.54 0.00 88 1018.9
20260902164004 81 64 3.0 7.0 0.00 1.54 0.00 88 1018.8
20260902163504 81 47 2.0 7.0 0.00 1.54 0.00 89 1018.9
20260902163004 81 61 1.0 7.0 0.00 1.54 0.00 90 1018.9
20260902162504 80 71 2.0 7.0 0.00 1.54 0.00 90 1019.0
20260902162004 80 89 0.0 3.0 0.00 1.54 0.00 90 1018.9
20260902161504 80 63 1.0 5.0 0.00 1.54 0.00 90 1018.8
20260902161004 80 65 2.0 8.0 0.00 1.54 0.00 90 1018.8
20260902160504 80 63 2.0 8.0 0.00 1.54 0.00 90 1018.9
20260902155504 80 91 2.0 7.0 0.00 1.54 1.54 89 1019.0
20260902155005 81 64 2.0 9.0 0.00 1.54 1.54 90 1018.8
20260902154504 80 100 2.0 9.0 0.00 1.54 1.54 89 1018.7
20260902154004 81 143 3.0 8.0 0.00 1.54 1.54 89 1018.7
20260902153503 81 131 3.0 8.0 0.00 1.54 1.54 90 1018.9
20260902153004 81 81 2.0 7.0 0.00 1.54 1.54 90 1018.9
20260902152504 80 67 1.0 7.0 0.00 1.54 1.54 92 1018.9
20260902152004 79 100 2.0 7.0 0.00 1.54 1.54 92 1019.0
20260902151504 79 43 2.0 7.0 0.00 1.54 1.54 93 1018.9
20260902151004 79 66 2.0 7.0 0.00 1.54 1.54 94 1019.0
20260902150504 78 39 2.0 8.0 0.00 1.54 1.54 94 1019.0
20260902150004 78 55 2.0 8.0 0.00 1.54 1.54 94 1019.0
20260902145504 78 67 1.0 7.0 0.00 1.54 1.54 94 1019.1
20260902145004 78 60 1.0 9.0 0.00 1.54 1.54 95 1019.1
20260902144504 78 62 2.0 9.0 0.00 1.54 1.54 95 1019.1
20260902144004 78 56 2.0 9.0 0.00 1.54 1.54 95 1019.1
20260902143504 78 62 1.0 7.0 0.00 1.54 1.54 96 1019.2
20260902143004 77 48 2.0 7.0 0.00 1.54 1.54 95 1019.1
20260902142504 77 32 2.0 6.0 0.00 1.54 1.54 96 1019.1
20260902142005 77 57 0.0 6.0 0.00 1.54 1.54 97 1019.3
20260902141504 76 40 2.0 6.0 0.00 1.54 1.54 97 1019.3
20260902141004 76 29 2.0 8.0 0.00 1.54 1.54 97 1019.2
20260902140504 76 57 2.0 8.0 0.00 1.54 1.54 97 1019.1
20260902140005 76 28 2.0 8.0 0.00 1.54 1.54 98 1019.0
20260902135504 76 44 1.0 3.0 0.00 1.54 1.54 98 1019.0
20260902135003 76 87 1.0 3.0 0.00 1.54 1.54 98 1019.0
20260902134503 75 54 1.0 3.0 0.00 1.54 1.54 98 1018.9
20260902134004 76 34 1.0 3.0 0.00 1.54 1.54 98 1018.9
20260902133505 76 79 0.0 3.0 0.00 1.54 1.54 98 1018.7
20260902133004 75 36 0.0 3.0 0.00 1.54 1.54 98 1018.5
20260902132504 75 48 1.0 3.0 0.00 1.54 1.54 98 1018.5
20260902132004 75 72 1.0 3.0 0.00 1.54 1.54 98 1018.5
20260902131004 75 71 1.0 3.0 0.00 1.54 1.54 98 1018.3
20260902130503 75 65 1.0 3.0 0.00 1.54 1.54 98 1018.4
20260902130004 74 56 2.0 3.0 0.00 1.54 1.54 98 1018.4
20260902124503 74 14 1.0 3.0 0.00 1.54 1.54 98 1018.3
20260902124004 74 68 1.0 3.0 0.00 1.54 1.54 98 1018.2
20260902123504 74 44 1.0 3.0 0.00 1.54 1.54 98 1018.4
20260902123004 74 42 0.0 6.0 0.00 1.54 1.54 99 1018.4
20260902122504 74 43 2.0 6.0 0.00 1.54 1.54 98 1018.4
20260902122004 74 42 1.0 3.0 0.00 1.54 1.54 99 1018.4
20260902121504 73 23 0.0 2.0 0.00 1.54 1.54 99 1018.4
20260902120004 73 53 0.0 1.0 0.00 1.54 1.54 99 1018.5
20260902115506 73 57 0.0 1.0 0.00 1.54 1.54 98 1018.4
20260902115004 73 45 0.0 1.0 0.00 1.54 1.54 98 1018.3
20260902114503 72 53 0.0 1.0 0.00 1.54 1.54 98 1018.3
20260902113504 72 46 0.0 1.0 0.00 1.54 1.54 98 1018.3
20260902113004 72 30 0.0 1.0 0.00 1.54 1.54 98 1018.3
20260902112504 72 30 0.0 1.0 0.00 1.54 1.54 98 1018.4
20260902112005 71 30 0.0 1.0 0.00 1.54 1.54 98 1018.3
20260902111004 71 30 0.0 1.0 0.00 1.54 1.54 98 1018.1
20260902110504 71 30 0.0 1.0 0.00 1.54 1.54 98 1018.1
20260902110006 71 20 0.0 1.0 0.00 1.54 1.54 98 1018.1
20260902105504 71 18 0.0 1.0 0.00 1.54 1.54 98 1018.0
20260902105004 71 16 0.0 0.0 0.00 1.54 1.54 98 1018.0
20260902104503 71 16 0.0 0.0 0.00 1.54 1.54 98 1017.9
20260902104004 71 16 0.0 0.0 0.00 1.54 1.54 98 1017.8
20260902103505 71 16 0.0 0.0 0.00 1.54 1.54 98 1017.8
20260902103004 71 16 0.0 0.0 0.00 1.54 1.54 98 1017.8
20260902102503 71 16 0.0 0.0 0.00 1.54 1.54 98 1017.7
20260902102004 71 16 0.0 0.0 0.00 1.54 1.54 98 1017.6
20260902101504 71 16 0.0 0.0 0.00 1.54 1.54 98 1017.5
20260902101004 71 16 0.0 0.0 0.00 1.54 1.54 98 1017.5
20260902100504 71 16 0.0 0.0 0.00 1.54 1.54 98 1017.4
20260902100004 71 16 0.0 0.0 0.00 1.54 1.54 98 1017.3
20260902095504 71 16 0.0 0.0 0.00 1.54 1.54 98 1017.3
20260902095004 71 16 0.0 1.0 0.00 1.54 1.54 98 1017.3
20260902094504 71 16 0.0 1.0 0.00 1.54 1.54 98 1017.2
20260902094004 72 15 0.0 2.0 0.00 1.54 1.54 98 1017.2
20260902093004 72 20 0.0 3.0 0.00 1.54 1.54 98 1017.3
20260902092004 72 17 1.0 3.0 0.01 1.54 1.54 98 1017.2
20260902091504 72 24 1.0 3.0 0.01 1.54 1.54 98 1017.1
20260902090504 72 43 0.0 3.0 0.01 1.54 1.54 98 1016.9
20260902090004 72 34 0.0 1.0 0.01 1.54 1.54 98 1016.9
20260902085503 72 37 0.0 1.0 0.01 1.54 1.54 98 1016.9
20260902085004 72 37 0.0 2.0 0.01 1.54 1.54 98 1016.8
20260902084504 72 37 0.0 3.0 0.01 1.54 1.54 98 1016.8
20260902084004 72 19 0.0 3.0 0.01 1.54 1.54 98 1016.8
20260902082004 72 25 0.0 3.0 0.00 1.53 1.53 98 1016.5
20260902081503 72 7 1.0 3.0 0.00 1.53 1.53 98 1016.6
20260902081004 72 25 0.0 1.0 0.00 1.53 1.53 98 1016.5
20260902080504 72 18 0.0 3.0 0.00 1.53 1.53 98 1016.3
20260902080003 72 20 1.0 3.0 0.00 1.53 1.53 98 1016.3
20260902075504 72 16 0.0 2.0 0.00 1.53 1.53 98 1016.2
20260902075004 72 29 0.0 1.0 0.00 1.53 1.53 98 1016.2
20260902074503 72 29 0.0 0.0 0.00 1.53 1.53 98 1016.1
20260902074004 72 29 0.0 0.0 0.00 1.53 1.53 98 1016.1
20260902073504 72 29 0.0 0.0 0.00 1.53 1.53 98 1016.1
20260902072503 72 29 0.0 1.0 0.00 1.53 1.53 98 1016.1
20260902072004 72 29 0.0 1.0 0.00 1.53 1.53 98 1016.1
20260902071003 72 28 0.0 1.0 0.00 1.53 1.53 98 1016.3
20260902070504 72 28 0.0 2.0 0.00 1.53 1.53 98 1016.3
20260902070006 72 29 0.0 2.0 0.00 1.53 1.53 98 1016.4
20260902065504 72 30 1.0 2.0 0.00 1.53 1.53 98 1016.3
20260902065004 72 129 0.0 0.0 0.00 1.53 1.53 98 1016.0
20260902064504 72 129 0.0 0.0 0.00 1.53 1.53 98 1016.1
20260902064004 72 129 0.0 0.0 0.00 1.53 1.53 98 1016.2
20260902063504 72 133 0.0 0.0 0.00 1.53 1.53 98 1016.3
20260902063004 72 134 0.0 0.0 0.00 1.53 1.53 98 1016.2
20260902062504 72 135 0.0 1.0 0.00 1.53 1.53 98 1016.2
20260902062004 72 135 0.0 1.0 0.00 1.53 1.53 98 1016.2
20260902061004 72 125 1.0 2.0 0.02 1.53 1.53 98 1016.2
20260902060505 72 151 0.0 2.0 0.08 1.53 1.53 98 1016.3
20260902060004 72 119 0.0 2.0 0.19 1.53 1.53 98 1016.4
20260902055005 72 109 0.0 2.0 0.65 1.53 1.53 98 1016.2
20260902054504 72 223 0.0 2.0 0.78 1.53 1.53 98 1016.2
20260902053504 72 246 0.0 2.0 0.89 1.53 1.53 98 1016.5
20260902052504 72 161 0.0 2.0 0.89 1.53 1.53 98 1016.5
20260902051504 72 183 1.0 5.0 0.89 1.53 1.53 98 1017.0
20260902051004 71 108 1.0 12.0 0.87 1.51 1.51 97 1017.3
20260902050504 71 79 2.0 12.0 0.81 1.45 1.45 97 1017.5
20260902050007 71 62 3.0 12.0 0.70 1.34 1.34 97 1017.5
20260902045503 71 49 3.0 12.0 0.41 1.05 1.05 97 1017.8
20260902045004 72 39 2.0 12.0 0.24 0.88 0.88 97 1018.0
20260902044504 72 34 3.0 8.0 0.11 0.75 0.75 97 1017.7
20260902044005 72 21 2.0 5.0 0.00 0.64 0.64 97 1018.2
20260902043504 72 46 0.0 6.0 0.00 0.64 0.64 97 1016.9
20260902043004 72 268 1.0 6.0 0.00 0.64 0.64 97 1016.6
20260902042504 72 73 2.0 5.0 0.00 0.64 0.64 97 1016.6
20260902042004 72 86 1.0 5.0 0.00 0.64 0.64 97 1016.7
20260902041505 72 116 1.0 6.0 0.00 0.64 0.64 97 1016.7
20260902041004 72 93 1.0 9.0 0.01 0.64 0.64 97 1016.7
20260902040504 72 91 2.0 9.0 0.04 0.64 0.64 97 1016.7
20260902040004 72 79 0.0 12.0 0.27 0.64 0.64 97 1016.4
20260902035504 72 126 3.0 12.0 0.44 0.64 0.64 97 1016.6
20260902035005 72 70 2.0 6.0 0.59 0.64 0.64 97 1016.7
20260902034504 72 316 0.0 1.0 0.64 0.64 0.64 97 1016.2
20260902034005 71 209 0.0 1.0 0.64 0.64 0.64 97 1016.1
20260902033503 71 209 0.0 1.0 0.64 0.64 0.64 97 1016.0
20260902033004 72 221 0.0 1.0 0.64 0.64 0.64 97 1016.1
20260902030504 72 38 4.0 21.0 0.60 0.60 0.60 95 1017.3
20260902025004 79 358 9.0 21.0 0.05 0.05 0.05 85 1017.2
20260902024004 81 11 7.0 17.0 0.00 0.00 0.00 83 1016.2
20260902023504 79 17 3.0 16.0 0.00 0.00 0.00 86 1016.0
20260902023003 80 38 7.0 16.0 0.00 0.00 0.00 87 1016.2
20260902022504 80 75 0.0 0.0 0.00 0.00 0.00 91 1015.2
20260902022004 80 179 0.0 0.0 0.00 0.00 0.00 91 1014.9
20260902021004 80 148 0.0 2.0 0.00 0.00 0.00 91 1014.5
20260902020504 80 138 0.0 2.0 0.00 0.00 0.00 92 1014.6
20260902020004 80 131 0.0 2.0 0.00 0.00 0.00 92 1014.7
20260902015504 80 267 0.0 1.0 0.00 0.00 0.00 92 1014.5
20260902015004 80 267 0.0 1.0 0.00 0.00 0.00 92 1014.2
20260902014504 80 110 0.0 1.0 0.00 0.00 0.00 92 1014.5
20260902014004 79 186 0.0 0.0 0.00 0.00 0.00 92 1014.6
20260902013505 79 206 0.0 0.0 0.00 0.00 0.00 92 1014.3
20260902013005 79 206 0.0 1.0 0.00 0.00 0.00 92 1014.3